Location: El Álamo
(40.2307°N, 3.9945°W)
Time: 18:25:33
(UTC+00:00)

Daily predictions for brighter satellites

Satellite Brightness Start Highest point End
(mag) Time Altitude Azimuth Time Altitude Azimuth Time Altitude Azimuth
Okean O Rocket 2.8 19:58:11 10° ESE 20:01:45 25° ENE 20:05:20 10° NNE
Meteor PRIRODA 4.4 20:02:00 10° SE 20:04:25 23° ENE 20:06:52 10° NNE
Okean-O 4.1 20:04:02 10° ESE 20:07:20 21° ENE 20:10:39 10° NNE
ERS-1 Rocket 4.2 20:05:16 10° ESE 20:09:22 26° ENE 20:13:29 10° NNE
Cosmos 858 Rocket 4.5 20:05:24 10° NNW 20:10:37 81° ENE 20:15:46 10° SSE
Feng Yun 1-1 Rocket 4.4 20:05:41 10° SSE 20:11:14 68° ENE 20:16:58 10° N
Cosmos 2369 Rocket 4.5 20:08:23 10° NW 20:12:40 22° W 20:16:55 10° SSW
ISS -0.8 20:16:11 10° NNW 20:17:32 12° N 20:18:52 10° NNE
Lacrosse 4 Rocket 4.0 20:14:53 10° WSW 20:18:06 24° NW 20:21:23 10° N
Gbstr 26 Del rocket 3.7 20:13:18 10° WNW 20:19:01 63° SW 20:23:22 12° SE
Cosmos 1743 4.1 20:17:05 10° NNE 20:19:30 18° ENE 20:21:21 13° ESE
CZ-4B R/B 3.1 20:15:43 10° SSE 20:19:42 55° ENE 20:23:35 10° N
ARIANE 6 FM1 Upper Stage 2.6 20:16:10 10° SSW 20:20:05 57° ESE 20:24:03 10° NE
NOSS 3-1 (C) 3.8 20:16:39 10° SSE 20:20:19 24° ESE 20:24:24 10° ENE
Cosmos 1782 2.5 20:19:31 10° S 20:23:10 84° E 20:26:52 10° N
Cosmos 1726 Rocket 3.5 20:21:06 10° S 20:25:30 71° E 20:29:54 10° NNE
Cosmos 1833 Rocket 3.3 20:21:29 10° SSE 20:26:32 35° ESE 20:31:37 10° NE
MetOp-B 4.4 20:21:50 10° SE 20:26:59 51° ENE 20:32:10 10° N
CZ-4 R/B 2.5 20:23:22 10° S 20:27:08 42° W 20:30:53 10° NNW
DELTA 2 R/B (1) 4.0 20:26:32 10° SW 20:31:42 41° SSE 20:36:52 10° E
Cosmos 1937 Rocket 4.5 20:28:34 10° NNW 20:33:27 44° WSW 20:38:18 10° S
Cosmos 158 Rocket 4.3 20:30:31 10° S 20:35:31 46° ESE 20:40:37 10° NNE
USA 186 2.8 20:33:34 10° SSW 20:36:07 35° W 20:38:40 10° NNW
Cosmos 1076 Rocket 3.8 20:32:47 10° N 20:36:59 48° E 20:40:11 16° SSE
Cosmos 2058 Rocket 3.3 20:36:41 10° SSE 20:40:59 50° E 20:45:19 10° NNE
Cosmos 1825 Rocket 3.7 20:39:34 10° NNW 20:43:52 71° W 20:48:07 10° S
DEBRIS 3.5 20:38:29 10° WNW 20:45:45 52° SW 20:47:32 21° SSE
NOSS 3-1 (A) 4.3 20:50:28 17° ESE 20:50:28 17° ESE 20:53:16 10° ENE
Helios 1A 2.8 20:46:44 10° NNE 20:50:47 83° ESE 20:54:47 10° SSW
Resurs 01 Rocket 4.2 20:48:39 10° SW 20:51:37 18° W 20:54:34 10° NW
Helios 1B rocket 2.8 20:48:14 10° S 20:51:45 52° W 20:55:21 10° NNW
ATLAS CENTAUR R/B 1.2 20:48:23 10° SW 20:52:00 77° WNW 20:55:46 10° NNE
Cosmos 2151 4.0 20:48:33 10° NNW 20:52:31 43° W 20:56:28 10° SSW
Cosmos 2360 4.5 20:47:19 10° NNW 20:52:56 55° ENE 20:56:35 21° SE
Terra 2.0 20:50:03 20° SE 20:53:11 56° ENE 20:57:47 10° N
Cosmos 1980 Rocket 4.2 20:50:46 10° NNE 20:54:01 15° NE 20:57:15 10° E
SAR-Lupe-2 4.2 20:57:49 28° ESE 20:59:07 38° ENE 21:02:27 10° N
USA 234 3.3 20:53:54 10° NE 21:00:29 88° NW 21:07:01 10° SW
Meteor 2-2 Rocket 4.5 20:57:32 15° SSE 21:02:16 54° E 21:08:05 10° NNE
BlueWalker 3 4.0 21:05:01 10° NNW 21:07:47 20° NNE 21:10:12 12° ENE
Cosmos 1400 Rocket 3.4 21:04:52 10° SSW 21:08:28 51° WNW 21:12:03 10° N
CZ-4B R/B 4.3 21:03:20 10° S 21:08:33 41° W 21:13:41 10° NNW
Cosmos 1125 Rocket 4.0 21:06:31 10° N 21:11:38 46° ENE 21:14:02 28° ESE
Cosmos 1346 Rocket 2.8 21:09:57 10° N 21:13:35 53° E 21:14:31 40° SE
IRS-1C Rocket 4.3 21:15:27 29° SE 21:18:01 56° ENE 21:23:10 10° N
Ariane Rocket 3.6 21:17:00 28° ESE 21:18:58 41° ENE 21:23:43 10° N
Cosmos 1953 Rocket 4.5 21:16:37 10° NNW 21:20:54 47° W 21:24:11 16° SSW
Cosmos 1238 Rocket 4.1 21:22:12 22° ENE 21:22:12 22° ENE 21:24:21 10° NE
Cosmos 44 4.0 21:19:07 10° NNW 21:23:27 40° NE 21:25:13 29° E
Cosmos 1570 Rocket 3.9 21:19:35 17° S 21:23:40 70° ESE 21:28:54 10° NNE
Lacrosse 5 rocket 2.0 21:22:33 10° NNW 21:25:49 34° NE 21:26:34 30° ENE
CZ-4C R/B 3.4 21:18:56 10° NW 21:26:22 63° WSW 21:32:15 23° SSE
Cosmos 1697 Rocket 3.0 21:21:21 10° NNW 21:26:55 55° ENE 21:29:17 33° SE
SL-8 Rocket 4.2 21:20:59 10° N 21:27:01 54° E 21:29:41 32° SE
Cosmos 2327 Rocket 4.4 21:21:43 10° N 21:27:52 83° E 21:31:17 28° S
ATLAS 3B R/B 4.4 21:30:06 16° E 21:30:06 16° E 21:33:39 10° ENE
Cosmos-2242 3.2 21:27:28 20° SSW 21:30:19 67° W 21:34:35 10° N
Cosmos 836 Rocket 4.4 21:27:43 28° S 21:30:23 62° ESE 21:35:30 10° NNE
Cosmos 2221 3.2 21:37:29 35° E 21:37:29 35° E 21:41:08 10° NNE
Okean O Rocket 3.3 21:34:39 13° SSW 21:37:51 28° W 21:41:35 10° NW
SeaSat 1 3.8 21:36:40 22° E 21:38:23 27° NE 21:42:29 10° N
Cosmos 1867 4.0 21:34:08 10° NNW 21:39:28 53° NE 21:41:23 36° ESE
Okean 1 4.1 21:42:37 33° ENE 21:42:37 33° ENE 21:45:17 10° NNE
Cosmos 2082 Rocket 2.8 21:42:05 34° ESE 21:42:17 34° ESE 21:47:18 10° NE
Okean-O 3.9 21:40:54 19° SSW 21:43:25 34° W 21:47:26 10° NNW
SPOT 3 Rocket 3.4 21:43:33 43° SSE 21:45:17 80° ENE 21:50:26 10° N
ERS-1 Rocket 4.2 21:44:41 18° SSW 21:47:54 35° W 21:52:29 10° NNW
Cosmos 2341 Rocket 3.9 21:42:26 10° N 21:48:42 82° E 21:51:18 38° SSE
Cosmos 773 Rocket 3.8 21:51:31 45° S 21:53:00 71° ESE 21:58:06 10° NNE
ISS -1.6 21:52:43 10° NNW 21:55:18 20° NNE 21:56:12 18° NE
Cosmos 2084 Rocket 4.1 21:52:38 10° SW 21:56:49 53° NW 22:00:59 10° NNE
Cosmos 220 Rocket 4.1 21:57:20 54° ENE 21:57:20 54° ENE 22:00:50 10° NNE
COSMOS 2406 4.3 21:59:10 28° E 21:59:10 28° E 22:03:15 10° NE
Spot 2 Rocket 4.2 21:57:45 30° SSW 21:59:49 47° W 22:04:40 10° NNW
Cosmos 1356 Rocket 3.9 22:04:09 44° SW 22:05:05 56° W 22:09:09 10° N
Cosmos 1733 4.4 22:06:05 10° NNW 22:08:27 28° WNW 22:08:27 28° WNW
Cosmos 1833 Rocket 4.3 22:05:23 10° WSW 22:10:24 33° WNW 22:15:28 10° N
NOSS 3-1 (C) 4.3 22:06:14 10° WSW 22:10:37 38° NW 22:15:49 10° NNE
DELTA 2 R/B (1) 3.4 22:12:15 10° WSW 22:17:48 80° S 22:19:10 52° E
Cosmos 1821 Rocket 3.8 22:17:43 10° N 22:23:51 82° E 22:25:07 58° SSE
Cosmos 1805 4.3 22:22:14 10° N 22:24:25 35° N 22:24:25 35° N
Meteor 1-19 Rocket 4.4 22:25:46 54° ESE 22:26:21 57° E 22:32:14 10° NNE
Cosmos 2218 Rocket 4.3 22:22:27 10° NNW 22:28:41 59° W 22:30:48 40° SSW
Cosmos 1315 Rocket 3.8 22:30:06 39° W 22:30:14 39° WNW 22:33:55 10° N
Meteor 1-27 Rocket 4.2 22:30:54 42° E 22:30:54 42° E 22:35:53 10° NNE
Terra 4.2 22:28:41 10° WSW 22:31:04 14° W 22:33:32 10° WNW
Cosmos 1980 Rocket 2.0 22:33:06 10° NNW 22:38:44 85° WSW 22:39:12 75° S
NOSS 3-1 (A) 3.6 22:37:43 27° WSW 22:40:05 52° NW 22:45:30 10° NNE
Intercosmos 25 Rocket 4.0 22:41:10 74° SE 22:41:34 80° E 22:49:07 10° N
BlueWalker 3 3.6 22:42:13 10° NW 22:44:08 29° WNW 22:44:08 29° WNW
SL-16 R/B 3.5 22:45:06 10° N 22:49:57 28° NE 22:51:04 26° ENE
Meteor 1-11 Rocket 3.5 22:47:46 10° N 22:53:19 80° E 22:53:25 80° E
Cosmos 2322 Rocket 4.0 22:54:34 10° N 22:58:42 20° NE 23:00:25 18° ENE
ARIANE 5 R/B 3.5 23:01:14 43° NNE 23:01:14 43° NNE 23:04:31 10° N
Cosmos 1842 Rocket 4.4 23:02:48 47° NNE 23:02:48 47° NNE 23:05:54 10° N
Lacrosse 5 rocket 3.9 23:00:25 10° WNW 23:00:34 11° WNW 23:00:34 11° WNW
Nadezhda 3 Rocket 4.2 23:06:38 53° SW 23:07:48 62° W 23:13:58 10° N
Cosmos 1697 Rocket 4.4 23:06:23 10° NW 23:10:22 20° W 23:11:00 20° WSW
SeaSat 1 3.4 23:16:18 38° W 23:16:18 38° W 23:20:12 10° NW
Cosmos 2278 4.3 23:10:56 10° N 23:16:19 44° ENE 23:16:39 43° ENE
Cosmos 381 Rocket 4.4 23:17:16 74° SW 23:17:52 84° WNW 23:24:16 10° NNE
Cosmos 2360 Rocket 3.8 23:13:57 10° N 23:18:26 24° NE 23:19:47 22° ENE
ATLAS 3B R/B 2.8 23:17:16 60° SSW 23:18:52 87° ESE 23:26:41 10° NE
Cosmos 1934 Rocket 3.8 23:13:23 10° N 23:19:41 87° E 23:20:02 81° SSE
USA 229 DEB 3.6 23:20:46 56° E 23:20:46 56° E 23:26:21 10° NE
USA 229 3.7 23:20:54 55° E 23:20:54 55° E 23:26:26 10° NE
Cosmos 1339 Rocket 4.4 23:20:29 67° WSW 23:21:01 71° W 23:27:04 10° N
CZ-2C R/B 4.4 23:18:21 10° N 23:21:45 49° NNW 23:21:45 49° NNW
Cosmos 2369 4.0 23:18:13 10° NNW 23:23:23 57° W 23:23:23 57° W
CENTAUR R/B 4.5 23:16:27 10° NNW 23:23:53 35° NE 23:31:24 12° ESE
Cosmos 2082 Rocket 3.6 23:23:50 23° WSW 23:26:18 33° WNW 23:31:20 10° N
ISS -0.5 23:29:02 10° NW 23:29:07 10° NW 23:29:07 10° NW
Cosmos 1605 Rocket 4.0 23:28:51 10° N 23:35:09 67° E 23:35:18 67° E
COSMOS 2406 4.3 23:41:09 34° W 23:42:31 39° WNW 23:47:51 10° N
Cosmos 1151 Rocket 4.4 23:56:08 36° N 23:56:08 36° N 23:58:41 10° N
USA 59 Rocket 2.5 23:56:15 12° NNW 23:56:15 12° NNW 23:56:57 10° NNW
